sat.trackr.live / text

‹ back to catalog

STARLINK-34162

NORAD 64018 · 2025-101AA

PAYLOAD ACTIVE UNKNOWN

§ Identity

Operator
Country
US
Launch date
2025-05-14
Launch site
AFETR
Launch vehicle
Mass (kg)
RCS (m²)

Purposes: comms

External: N2YO · Heavens-Above · Gunter

§ Orbital elements

Epoch: 2026-09-20T12:47:51.449568Z

Period
94.27 min
Inclination
43.0048°
Eccentricity
0.0001430
Mean motion
15.27582390 rev/d
Perigee alt
482.1 km
Apogee alt
484.0 km
Semi-major
6,861.2 km
B*
4.1426e-4
RAAN
337.6162°
Arg perigee
268.1454°
Mean anomaly
91.9233°
Rev number
7,685

§ Raw data

STARLINK-341621 64018U 25101AA  26263.53323437  .00011156  00000+0  41426-3 0  99902 64018  43.0048 337.6162 0001430 268.1454  91.9233 15.27582390 76851

JSON: /api/v1/satellites/64018 · /tle

For live sub-satellite position, see the globe view (requires WebGL).

§ Visibility from observer

Set your observer location to see the next 7 days of passes ≥ 10°. The values pass through the URL so the page stays shareable.

No JS? Fill the form by hand. The geolocation button needs JavaScript.